STARLINK-4002

operational
NORAD ID: 52612 Int'l Des: 2022-052 Owner: SPXS Country: US Constellation: starlink
LEOCIRCULAR

STARLINK-4002について

説明を読み込み中...

リアルタイム位置

3D地球を読み込み中...

次回通過

高度履歴

Altitude vs Time

uPlot chart will show altitude changes over time

軌道要素

1 52612U 22052Q 25251.61338718 -.00000369 00000-0 -50863-5 0 9996
2 52612 53.2187 16.4956 0001248 85.8958 274.2177 15.08829727183374
Epoch: Sep 8, 2025 • Age: 10 hours

現在のステータス

高度 540.5 km
速度 7.59 km/s
衛星直下点 1.88°N, 170.83°W
打ち上げ日 May 14, 2022
運用期間 3.3 years
タイプ internet

技術仕様

分類 Payload
質量 297.00 kg
乾燥質量 275.00 kg
総質量 297.00 kg
長さ 0.20 m
直径 2.80 m
スパン 9.00 m
形状 Box + pan
製造者 SPXS
バスタイプ Starlink
フェーズステータス In Orbit
所有者/国 SPXS/US

大規模コンステレーション

Loading constellations...